#timestamp,LO_Frequency,Hit,StdDev 
1504468815.6,286047000.1,N,0.8
1504468835.4,286047002.4,N,0.8
1504468855.2,286047002.7,Y,0.0
1504468875.1,286047000.2,P,0.5
1504468876.0,286047000.2,N,0.4
1504468895.8,286047002.5,P,0.9
1504468915.6,286047000.3,N,0.9
1504468935.5,286047000.6,N,0.8
1504468955.3,286047002.8,Y,0.0
1504468975.1,286047000.8,P,0.0
1504468995.9,286047002.1,P,0.6
1504469015.7,286047002.5,P,0.8
1504469035.5,286047000.1,N,0.9
1504469055.4,286047001.5,N,0.8
1504469075.2,286047001.8,N,0.8
1504469095.0,286047002.5,Y,0.0
1504469096.0,286047002.5,P,0.6
1504469115.8,286047001.0,N,0.6
1504469135.6,286047001.1,N,0.6
1504469155.5,286046998.1,Y,0.0
1504469175.3,286046996.5,P,2.5
1504469195.1,286046999.0,N,2.0
1504469215.9,286046997.0,N,2.0
1504469235.7,286046999.5,N,1.8
1504469255.5,286046996.9,N,1.8
1504469275.4,286046998.1,N,1.6
1504469295.2,286047000.8,N,1.7
1504469315.0,286046998.6,N,1.6
1504469315.9,286046998.6,N,1.6
1504469335.8,286046999.2,N,1.5
1504469355.6,286046998.4,N,1.4
1504469375.4,286047001.1,N,1.5
1504469395.3,286046998.8,N,1.5
1504469415.1,286046998.9,N,1.4
1504469416.0,286046998.9,N,1.4
1504469435.8,286046997.4,N,1.4
1504469455.7,286046997.8,N,1.4
1504469475.5,286046997.3,N,1.4
1504469495.3,286046997.8,N,1.3
1504469515.2,286046996.7,N,1.4
1504469535.9,286046999.6,N,1.4
1504469555.7,286046999.5,N,1.3
1504469575.6,286046997.1,N,1.3
1504469595.4,286046996.9,N,1.4
1504469615.2,286046998.9,N,1.3
1504469635.1,286046996.9,N,1.3
1504469636.0,286046996.9,N,1.3
1504469655.8,286046997.2,N,1.3
1504469675.6,286046999.2,N,1.3
1504469695.5,286046999.4,N,1.2
1504469715.3,286046997.1,N,1.2
1504469735.1,286046999.1,N,1.2
1504469755.9,286046998.4,N,1.2
1504469775.7,286046998.3,N,1.1
1504469795.5,286047000.4,N,1.2
1504469815.4,286047000.4,N,1.2
1504469835.2,286047001.0,N,1.2
1504469855.0,286046998.2,N,1.2
1504469855.9,286046998.2,N,1.2
1504469875.8,286046999.6,N,1.2
1504469895.6,286046999.0,N,1.2
1504469915.4,286046998.6,N,1.2
1504469935.3,286046998.7,N,1.1
1504469955.1,286046999.0,N,1.2
1504469975.8,286046998.2,N,1.1
1504469995.7,286046998.7,N,1.1
1504470015.5,286046999.4,N,1.1
1504470035.3,286046999.5,N,1.1
1504470055.2,286046996.9,N,1.2
1504470075.0,286046999.4,N,1.1
1504470075.9,286046999.4,N,1.1
1504470095.7,286046999.2,N,1.1
1504470115.6,286046999.4,N,1.1
1504470135.4,286047000.7,N,1.1
1504470155.2,286047000.3,N,1.1
1504470175.1,286046999.9,N,1.1
1504470176.0,286046999.9,N,1.0
1504470195.8,286046999.9,N,0.9
1504470215.6,286047002.3,N,1.1
1504470235.5,286047002.6,N,1.2
1504470255.3,286047002.3,N,1.3
1504470275.1,286047004.3,Y,0.0
1504470295.9,286047004.2,P,2.3
1504470315.7,286047001.4,N,1.9
1504470335.5,286047004.1,N,1.9
1504470355.4,286047003.6,N,1.8
1504470375.2,286047004.4,N,1.8
1504470395.0,286047004.2,N,1.7
1504470396.0,286047004.2,N,1.7
1504470415.8,286047001.3,N,1.7
1504470435.6,286047004.4,N,1.6
1504470455.5,286047003.8,N,1.6
1504470475.3,286047001.7,N,1.6
1504470495.1,286047002.1,N,1.5
1504470515.9,286047002.0,N,1.5
1504470535.7,286047002.0,N,1.5
1504470555.5,286047001.9,N,1.4
1504470575.4,286047002.3,N,1.4
1504470595.2,286046999.8,N,1.5
1504470615.0,286047000.3,N,1.6
1504470615.9,286047000.3,N,1.6
1504470635.8,286047000.5,N,1.6
1504470655.6,286047001.1,N,1.6
1504470675.4,286047000.5,N,1.6
1504470695.3,286047000.4,N,1.6
1504470715.1,286047000.4,N,1.6
1504470716.0,286047000.4,N,1.6
1504470735.8,286047000.6,N,1.6
1504470755.7,286047001.2,N,1.6
1504470775.5,286047001.1,N,1.5
1504470795.3,286047001.0,N,1.5
1504470815.2,286046998.3,N,1.6
1504470835.9,286047001.1,N,1.5
1504470855.7,286046998.3,N,1.7
1504470875.6,286046998.5,N,1.7
1504470895.4,286046996.7,N,1.8
1504470915.2,286046999.5,N,1.8
1504470935.1,286046996.8,N,1.8
1504470936.0,286046996.8,N,1.8
1504470955.8,286046999.1,N,1.8
1504470975.6,286046998.7,N,1.7
1504470995.5,286046997.4,N,1.6
1504471015.3,286046997.2,N,1.7
1504471035.1,286046997.5,N,1.7
1504471055.9,286046997.3,N,1.7
1504471075.7,286046996.6,N,1.7
1504471095.5,286046997.7,N,1.7
1504471115.4,286046997.6,N,1.6
1504471135.2,286046997.6,N,1.6
1504471155.0,286046995.7,N,1.7
1504471155.9,286046995.7,N,1.8
1504471175.8,286046996.3,N,1.8
1504471195.6,286046995.9,N,1.8
1504471215.4,286046996.4,N,1.8
1504471235.3,286046996.0,N,1.8
1504471255.1,286046995.7,N,1.8
1504471275.9,286046996.1,N,1.7
1504471295.7,286046995.4,N,1.7
1504471315.5,286046997.3,N,1.6
1504471335.4,286046997.3,N,1.4
1504471355.2,286046997.2,N,1.3
1504471375.0,286046997.5,N,1.2
1504471375.9,286046997.5,N,1.0
1504471395.8,286046995.3,Y,0.0
1504471415.6,286046998.3,P,0.6
1504471435.4,286046998.6,N,0.6
1504471455.3,286046999.0,N,0.7
1504471475.1,286046998.3,N,0.6
1504471476.0,286046998.3,N,0.6
1504471495.8,286046998.4,N,0.5
1504471515.7,286046999.1,N,0.6
1504471535.5,286046996.6,Y,0.0
1504471555.3,286047001.2,P,1.4
1504471575.2,286046998.3,N,1.3
1504471595.9,286046998.5,N,1.2
1504471615.7,286047000.8,N,1.3
1504471635.6,286046998.7,N,1.2
1504471655.4,286046998.3,N,1.2
1504471675.2,286046996.6,N,1.4
1504471695.1,286046994.9,Y,0.0
1504471696.0,286046994.9,P,2.0
1504471715.8,286046999.1,N,1.9
1504471735.6,286046999.1,N,1.8
1504471755.5,286046999.5,N,1.7
1504471775.3,286046996.5,N,1.7
1504471795.1,286046996.9,N,1.6
1504471815.9,286046996.6,N,1.6
1504471835.7,286046996.7,N,1.5
1504471855.5,286046999.0,N,1.5
1504471875.4,286046997.0,N,1.4
1504471895.2,286046996.5,N,1.4
1504471915.0,286046998.9,N,1.4
1504471915.9,286046998.9,N,1.4
1504471935.8,286046998.4,N,1.4
1504471955.6,286046998.4,N,1.3
1504471975.4,286046998.9,N,1.3
1504471995.3,286046998.6,N,1.3
1504472015.1,286046999.1,N,1.3
1504472035.8,286046998.4,N,1.2
1504472055.7,286046999.1,N,1.2
1504472075.5,286046999.1,N,1.2
1504472095.3,286046999.6,N,1.2
1504472145.2,286046996.7,E,nan
1504472155.1,286047000.8,N,0.0
1504472175.9,286047002.7,P,1.0
1504472195.7,286047002.5,N,0.9
1504472215.5,286047002.3,N,0.7
1504472235.4,286047002.8,Y,0.0
1504472255.2,286046998.3,P,1.9
1504472275.0,286046999.5,N,1.6
1504472275.9,286046999.5,N,1.4
1504472295.8,286047001.2,N,1.3
1504472315.6,286047000.5,N,1.2
1504472335.4,286047000.3,N,1.1
1504472355.3,286046998.2,N,1.3
1504472375.1,286046998.5,N,1.3
1504472395.8,286046998.3,N,1.3
